When you browse on this site, cookies collect data to enhance your experience and personalize the content and advertising you see.
Visit our Privacy Policy to learn more. By continuing to use the site, you agree to this use of cookies and data.
  • In Hungary
  • List of Countries
  • For 7 days
  • Water Temperature
  • Weather Map
  • News
  • Weather Widgets
  • user-avatar
    Login

    Hourly Weather Verhniy Apolec

    Today, 23 January, Thursday

    Time Temperature Precipitation Wind Pressure Humidity
    00:00 -6°C° 0 mm 6 mps 740 mmHg 77%
    01:00 -6°C° 0 mm 6 mps 741 mmHg 74%
    02:00 -6°C° 0 mm 5 mps 742 mmHg 70%
    03:00 -6°C° 0 mm 5 mps 742 mmHg 72%
    04:00 -6°C° 0 mm 5 mps 743 mmHg 75%
    05:00 -6°C° 0 mm 5 mps 743 mmHg 77%
    06:00 -6°C° 0 mm 5 mps 743 mmHg 71%
    07:00 -7°C° 0 mm 5 mps 744 mmHg 66%
    08:00 -7°C° 0 mm 4 mps 745 mmHg 60%
    09:00 -7°C° 0 mm 5 mps 745 mmHg 60%
    10:00 -6°C° 0 mm 5 mps 745 mmHg 60%
    11:00 -6°C° 0 mm 5 mps 746 mmHg 60%
    12:00 -5°C° 0 mm 5 mps 746 mmHg 61%
    13:00 -5°C° 0 mm 5 mps 746 mmHg 61%
    14:00 -4°C° 0 mm 5 mps 746 mmHg 62%
    15:00 -4°C° 0 mm 4 mps 746 mmHg 65%
    16:00 -4°C° 0 mm 4 mps 746 mmHg 67%
    17:00 -4°C° 0 mm 3 mps 746 mmHg 70%
    18:00 -4°C° 0 mm 3 mps 746 mmHg 73%
    19:00 -4°C° 0 mm 3 mps 746 mmHg 76%
    20:00 -4°C° 0 mm 3 mps 745 mmHg 79%
    21:00 -4°C° 0 mm 3 mps 745 mmHg 83%
    22:00 -4°C° 0 mm 3 mps 745 mmHg 86%
    23:00 -2°C° 0 mm 3 mps 744 mmHg 89%

    Tomorrow, 24 January, Friday

    Time Temperature Precipitation Wind Pressure Humidity
    00:00 -2°C° 0 mm 3 mps 744 mmHg 88%
    01:00 -3°C° 0 mm 4 mps 743 mmHg 88%
    02:00 -3°C° 0 mm 4 mps 742 mmHg 87%
    03:00 -3°C° 0 mm 4 mps 741 mmHg 87%
    04:00 -3°C° 0 mm 4 mps 740 mmHg 87%
    05:00 -2°C° 0 mm 4 mps 739 mmHg 88%
    06:00 -2°C° 0.1 mm 4 mps 738 mmHg 90%
    07:00 -1°C° 0.1 mm 5 mps 738 mmHg 92%
    08:00 0°C° 0.1 mm 5 mps 737 mmHg 94%
    09:00 0°C° 0 mm 5 mps 737 mmHg 94%
    10:00 +1°C° 0 mm 5 mps 736 mmHg 93%
    11:00 +1°C° 0 mm 5 mps 736 mmHg 93%
    12:00 +1°C° 0 mm 5 mps 736 mmHg 92%
    13:00 +2°C° 0 mm 5 mps 735 mmHg 91%
    14:00 +2°C° 0 mm 5 mps 735 mmHg 90%
    15:00 +1°C° 0.1 mm 5 mps 735 mmHg 91%
    16:00 +1°C° 0.1 mm 5 mps 735 mmHg 91%
    17:00 +1°C° 0.1 mm 5 mps 735 mmHg 92%
    18:00 +1°C° 0.7 mm 4 mps 735 mmHg 93%
    19:00 0°C° 0.7 mm 4 mps 735 mmHg 95%
    20:00 0°C° 0.7 mm 3 mps 736 mmHg 96%
    21:00 0°C° 0.2 mm 3 mps 736 mmHg 96%
    22:00 0°C° 0.2 mm 3 mps 736 mmHg 96%
    23:00 0°C° 0.2 mm 3 mps 735 mmHg 95%

    Day after tomorrow, 25 January, Saturday

    Time Temperature Precipitation Wind Pressure Humidity
    00:00 -1°C° 0 mm 4 mps 735 mmHg 94%
    01:00 -1°C° 0 mm 4 mps 735 mmHg 94%
    02:00 -2°C° 0 mm 4 mps 735 mmHg 93%
    03:00 -2°C° 0 mm 4 mps 735 mmHg 91%
    04:00 -2°C° 0 mm 5 mps 735 mmHg 90%
    05:00 -2°C° 0 mm 5 mps 734 mmHg 89%
    06:00 -2°C° 0 mm 5 mps 734 mmHg 87%
    07:00 -1°C° 0 mm 5 mps 734 mmHg 84%
    08:00 -1°C° 0 mm 5 mps 734 mmHg 82%
    09:00 -2°C° 0 mm 6 mps 734 mmHg 80%
    10:00 -2°C° 0 mm 6 mps 734 mmHg 77%
    11:00 -2°C° 0 mm 6 mps 734 mmHg 75%
    12:00 -2°C° 0.3 mm 6 mps 735 mmHg 75%
    13:00 -2°C° 0.3 mm 6 mps 735 mmHg 74%
    14:00 -2°C° 0.3 mm 6 mps 735 mmHg 74%
    15:00 -3°C° 0.2 mm 6 mps 735 mmHg 73%
    16:00 -2°C° 0.2 mm 5 mps 735 mmHg 72%
    17:00 -4°C° 0.2 mm 5 mps 736 mmHg 71%
    18:00 -4°C° 0 mm 5 mps 736 mmHg 72%
    19:00 -4°C° 0 mm 5 mps 737 mmHg 74%
    20:00 -5°C° 0 mm 5 mps 738 mmHg 75%
    21:00 -5°C° 0 mm 5 mps 739 mmHg 75%
    22:00 -4°C° 0 mm 4 mps 739 mmHg 76%
    23:00 -4°C° 0 mm 4 mps 740 mmHg 77%

    26 January, Sunday

    Time Temperature Precipitation Wind Pressure Humidity
    00:00 -4°C° 0 mm 4 mps 740 mmHg 78%
    01:00 -4°C° 0 mm 4 mps 741 mmHg 79%
    02:00 -4°C° 0 mm 4 mps 742 mmHg 81%
    03:00 -5°C° 0 mm 4 mps 742 mmHg 81%
    04:00 -5°C° 0 mm 3 mps 743 mmHg 81%
    05:00 -5°C° 0 mm 3 mps 744 mmHg 81%
    06:00 -5°C° 0 mm 3 mps 744 mmHg 82%
    07:00 -5°C° 0 mm 3 mps 745 mmHg 83%
    08:00 -4°C° 0 mm 2 mps 746 mmHg 84%
    09:00 -4°C° 0 mm 2 mps 746 mmHg 81%
    10:00 -3°C° 0 mm 2 mps 747 mmHg 78%
    11:00 -2°C° 0 mm 2 mps 747 mmHg 75%
    12:00 -2°C° 0 mm 2 mps 747 mmHg 73%
    13:00 -2°C° 0 mm 2 mps 748 mmHg 71%
    14:00 -1°C° 0 mm 2 mps 748 mmHg 69%
    15:00 -2°C° 0 mm 2 mps 748 mmHg 72%
    16:00 -2°C° 0 mm 2 mps 748 mmHg 75%
    17:00 -3°C° 0 mm 2 mps 747 mmHg 77%
    18:00 -3°C° 0 mm 2 mps 747 mmHg 82%
    19:00 -2°C° 0 mm 3 mps 747 mmHg 88%
    20:00 -2°C° 0 mm 3 mps 747 mmHg 93%
    21:00 -1°C° 0.1 mm 3 mps 747 mmHg 94%
    22:00 0°C° 0.1 mm 3 mps 747 mmHg 95%
    23:00 0°C° 0.1 mm 3 mps 747 mmHg 97%

    27 January, Monday

    Time Temperature Precipitation Wind Pressure Humidity
    00:00 0°C° 0.2 mm 3 mps 746 mmHg 97%
    01:00 0°C° 0.2 mm 3 mps 746 mmHg 97%
    02:00 0°C° 0.2 mm 4 mps 746 mmHg 97%
    03:00 -1°C° 0.3 mm 4 mps 746 mmHg 97%
    04:00 -1°C° 0.3 mm 4 mps 745 mmHg 97%
    05:00 -1°C° 0.3 mm 4 mps 745 mmHg 97%
    06:00 -1°C° 0.2 mm 4 mps 745 mmHg 97%
    07:00 -1°C° 0.2 mm 4 mps 745 mmHg 96%
    08:00 0°C° 0.2 mm 3 mps 744 mmHg 96%
    09:00 0°C° 0 mm 3 mps 744 mmHg 96%
    10:00 0°C° 0 mm 3 mps 744 mmHg 96%
    11:00 0°C° 0 mm 3 mps 744 mmHg 95%
    12:00 0°C° 0 mm 3 mps 744 mmHg 95%
    13:00 0°C° 0 mm 3 mps 744 mmHg 95%
    14:00 0°C° 0 mm 3 mps 743 mmHg 95%
    15:00 0°C° 0.2 mm 3 mps 743 mmHg 96%
    16:00 0°C° 0.2 mm 3 mps 743 mmHg 96%
    17:00 0°C° 0.2 mm 3 mps 742 mmHg 97%
    18:00 0°C° 0.3 mm 3 mps 742 mmHg 97%
    19:00 0°C° 0.3 mm 3 mps 741 mmHg 97%
    20:00 0°C° 0.3 mm 3 mps 741 mmHg 97%
    21:00 0°C° 0.2 mm 3 mps 741 mmHg 97%
    22:00 0°C° 0.2 mm 3 mps 740 mmHg 97%
    23:00 0°C° 0.2 mm 3 mps 740 mmHg 97%

    28 January, Tuesday

    Time Temperature Precipitation Wind Pressure Humidity
    00:00 0°C° 0.2 mm 3 mps 740 mmHg 96%
    01:00 -1°C° 0.2 mm 3 mps 739 mmHg 95%
    02:00 -1°C° 0.2 mm 3 mps 739 mmHg 94%
    03:00 -1°C° 0.5 mm 3 mps 739 mmHg 95%
    04:00 -1°C° 0.5 mm 3 mps 739 mmHg 96%
    05:00 -1°C° 0.5 mm 3 mps 739 mmHg 97%
    06:00 -1°C° 0.4 mm 3 mps 739 mmHg 96%
    07:00 -1°C° 0.4 mm 4 mps 739 mmHg 95%
    08:00 -1°C° 0.4 mm 4 mps 740 mmHg 93%
    09:00 -1°C° 0 mm 4 mps 740 mmHg 92%
    10:00 -1°C° 0 mm 4 mps 740 mmHg 90%
    11:00 -1°C° 0 mm 4 mps 741 mmHg 89%
    12:00 0°C° 0 mm 3 mps 741 mmHg 88%
    13:00 0°C° 0 mm 3 mps 741 mmHg 87%
    14:00 +1°C° 0 mm 2 mps 741 mmHg 86%
    15:00 -1°C° 0 mm 3 mps 742 mmHg 88%
    16:00 -1°C° 0 mm 3 mps 742 mmHg 90%
    17:00 -2°C° 0 mm 3 mps 742 mmHg 93%
    18:00 -2°C° 0 mm 3 mps 741 mmHg 90%
    19:00 -2°C° 0 mm 3 mps 741 mmHg 88%
    20:00 -2°C° 0 mm 4 mps 741 mmHg 85%
    21:00 -2°C° 0 mm 4 mps 740 mmHg 85%
    22:00 -1°C° 0 mm 5 mps 739 mmHg 84%
    23:00 -1°C° 0 mm 5 mps 739 mmHg 84%
    Show more